Wetterdaten: Woche 11.02.13 - 17.02.13 (KW7)
Datum Zeit Temperatur Luftfeuchte Luftdruck Niederschlag Windrichtung Sonnenschein Solar Wind
11.02.2013 00:00 -10,3 C 89 % 1005,4 hPa 0,0 l/m NO 0,00 h 0 W/m 2,9 km/h (1 Bft)
11.02.2013 01:00 -10,0 C 92 % 1005,0 hPa 0,0 l/m N 0,00 h 0 W/m 3,1 km/h (1 Bft)
11.02.2013 02:00 -9,4 C 92 % 1004,7 hPa 0,0 l/m NO 0,00 h 0 W/m 4,7 km/h (1 Bft)
11.02.2013 03:00 -8,7 C 91 % 1003,9 hPa 0,0 l/m NO 0,00 h 0 W/m 5,2 km/h (1 Bft)
11.02.2013 04:00 -8,3 C 90 % 1003,1 hPa 0,0 l/m NO 0,00 h 0 W/m 3,9 km/h (1 Bft)
11.02.2013 05:00 -8,1 C 89 % 1002,6 hPa 0,0 l/m NO 0,00 h 0 W/m 4,8 km/h (1 Bft)
11.02.2013 06:00 -7,7 C 89 % 1002,3 hPa 0,0 l/m NO 0,00 h 0 W/m 4,9 km/h (1 Bft)
11.02.2013 07:00 -7,6 C 89 % 1001,9 hPa 0,0 l/m N-NO 0,00 h 7 W/m 5,9 km/h (2 Bft)
11.02.2013 08:00 -7,6 C 89 % 1001,9 hPa 0,0 l/m N-NO 0,00 h 35 W/m 5,7 km/h (1 Bft)
11.02.2013 09:00 -6,9 C 87 % 1001,6 hPa 0,0 l/m N-NO 0,00 h 89 W/m 7,1 km/h (2 Bft)
11.02.2013 10:00 -6,1 C 84 % 1001,5 hPa 0,0 l/m NO 0,25 h 187 W/m 9,0 km/h (2 Bft)
11.02.2013 11:00 -5,0 C 81 % 1001,3 hPa 0,0 l/m N-NO 0,67 h 259 W/m 10,9 km/h (2 Bft)
11.02.2013 12:00 -3,9 C 78 % 1000,9 hPa 0,0 l/m N-NO 0,83 h 280 W/m 9,4 km/h (2 Bft)
11.02.2013 13:00 -3,1 C 77 % 1000,4 hPa 0,0 l/m NO 1,00 h 268 W/m 12,5 km/h (3 Bft)
11.02.2013 14:00 -2,6 C 76 % 1000,3 hPa 0,0 l/m N-NO 0,50 h 220 W/m 11,6 km/h (2 Bft)
11.02.2013 15:00 -2,6 C 76 % 1000,4 hPa 0,0 l/m NO 0,67 h 172 W/m 11,0 km/h (2 Bft)
11.02.2013 16:00 -2,8 C 77 % 1000,7 hPa 0,0 l/m O-NO 0,00 h 66 W/m 11,6 km/h (2 Bft)
11.02.2013 17:00 -3,3 C 79 % 1001,4 hPa 0,0 l/m NO 0,00 h 14 W/m 9,9 km/h (2 Bft)
11.02.2013 18:00 -3,9 C 81 % 1001,9 hPa 0,0 l/m NO 0,00 h 0 W/m 5,6 km/h (1 Bft)
11.02.2013 19:00 -4,2 C 83 % 1002,5 hPa 0,0 l/m NO 0,00 h 0 W/m 2,7 km/h (1 Bft)
11.02.2013 20:00 -4,3 C 83 % 1002,7 hPa 0,0 l/m NO 0,00 h 0 W/m 4,3 km/h (1 Bft)
11.02.2013 21:00 -4,2 C 84 % 1002,6 hPa 0,0 l/m NO 0,00 h 0 W/m 7,1 km/h (2 Bft)
11.02.2013 22:00 -4,5 C 87 % 1002,6 hPa 0,0 l/m NO 0,00 h 0 W/m 6,0 km/h (2 Bft)
11.02.2013 23:00 -5,0 C 89 % 1002,8 hPa 0,0 l/m NO 0,00 h 0 W/m 5,5 km/h (1 Bft)
12.02.2013 00:00 -5,1 C 89 % 1002,9 hPa 0,0 l/m NO 0,00 h 0 W/m 6,1 km/h (2 Bft)
12.02.2013 01:00 -5,1 C 89 % 1003,0 hPa 0,0 l/m NO 0,00 h 0 W/m 8,0 km/h (2 Bft)
12.02.2013 02:00 -5,1 C 90 % 1003,2 hPa 0,0 l/m NO 0,00 h 0 W/m 7,1 km/h (2 Bft)
12.02.2013 03:00 -5,1 C 90 % 1003,2 hPa 0,0 l/m NO 0,00 h 0 W/m 7,8 km/h (2 Bft)
12.02.2013 04:00 -4,8 C 90 % 1003,4 hPa 0,0 l/m NO 0,00 h 0 W/m 7,5 km/h (2 Bft)
12.02.2013 05:00 -4,8 C 90 % 1004,0 hPa 0,0 l/m NO 0,00 h 0 W/m 8,5 km/h (2 Bft)
12.02.2013 06:00 -4,9 C 89 % 1004,5 hPa 0,0 l/m NO 0,00 h 0 W/m 9,4 km/h (2 Bft)
12.02.2013 07:00 -5,1 C 89 % 1005,0 hPa 0,0 l/m N-NO 0,00 h 6 W/m 8,7 km/h (2 Bft)
12.02.2013 08:00 -5,1 C 89 % 1005,8 hPa 0,0 l/m N-NO 0,00 h 14 W/m 6,8 km/h (2 Bft)
12.02.2013 09:00 -5,0 C 89 % 1006,7 hPa 0,0 l/m NO 0,00 h 43 W/m 7,0 km/h (2 Bft)
12.02.2013 10:00 -4,7 C 87 % 1007,2 hPa 0,0 l/m N-NO 0,00 h 86 W/m 8,0 km/h (2 Bft)
12.02.2013 11:00 -4,3 C 86 % 1008,0 hPa 0,0 l/m N-NO 0,00 h 101 W/m 7,5 km/h (2 Bft)
12.02.2013 12:00 -3,9 C 86 % 1008,4 hPa 0,0 l/m N-NO 0,00 h 131 W/m 5,3 km/h (1 Bft)
12.02.2013 13:00 -3,6 C 87 % 1008,5 hPa 0,0 l/m N-NO 0,00 h 130 W/m 6,4 km/h (2 Bft)
12.02.2013 14:00 -3,4 C 87 % 1009,2 hPa 0,2 l/m N 0,00 h 80 W/m 3,3 km/h (1 Bft)
12.02.2013 15:00 -3,2 C 89 % 1010,2 hPa 0,6 l/m N 0,00 h 57 W/m 0,9 km/h (0 Bft)
12.02.2013 16:00 -3,1 C 90 % 1011,0 hPa 0,0 l/m N 0,00 h 48 W/m 4,9 km/h (1 Bft)
12.02.2013 17:00 -3,5 C 88 % 1011,8 hPa 0,0 l/m N 0,00 h 14 W/m 4,9 km/h (1 Bft)
12.02.2013 18:00 -3,8 C 89 % 1012,7 hPa 0,0 l/m N 0,00 h 0 W/m 1,2 km/h (1 Bft)
12.02.2013 19:00 -4,1 C 89 % 1013,4 hPa 0,0 l/m N 0,00 h 0 W/m 3,5 km/h (1 Bft)
12.02.2013 20:00 -4,2 C 89 % 1014,2 hPa 0,0 l/m N 0,00 h 0 W/m 3,6 km/h (1 Bft)
12.02.2013 21:00 -4,2 C 89 % 1015,0 hPa 0,0 l/m N 0,00 h 0 W/m 2,7 km/h (1 Bft)
12.02.2013 22:00 -4,2 C 89 % 1015,5 hPa 0,0 l/m N 0,00 h 0 W/m 2,1 km/h (1 Bft)
12.02.2013 23:00 -4,2 C 88 % 1015,7 hPa 0,0 l/m N 0,00 h 0 W/m 1,6 km/h (1 Bft)
13.02.2013 00:00 -4,2 C 88 % 1016,1 hPa 0,0 l/m N 0,00 h 0 W/m 1,5 km/h (1 Bft)
13.02.2013 01:00 -4,2 C 88 % 1016,5 hPa 0,0 l/m N 0,00 h 0 W/m 0,9 km/h (0 Bft)
13.02.2013 02:00 -4,4 C 88 % 1017,1 hPa 0,0 l/m N 0,00 h 0 W/m 1,1 km/h (0 Bft)
13.02.2013 03:00 -4,5 C 87 % 1017,6 hPa 0,0 l/m N 0,00 h 0 W/m 1,5 km/h (1 Bft)
13.02.2013 04:00 -4,6 C 86 % 1018,2 hPa 0,0 l/m N 0,00 h 0 W/m 1,1 km/h (0 Bft)
13.02.2013 05:00 -4,7 C 86 % 1018,5 hPa 0,0 l/m N 0,00 h 0 W/m 1,3 km/h (1 Bft)
13.02.2013 06:00 -4,8 C 85 % 1019,1 hPa 0,0 l/m N 0,00 h 0 W/m 5,6 km/h (1 Bft)
13.02.2013 07:00 -4,9 C 84 % 1019,8 hPa 0,0 l/m N 0,00 h 8 W/m 4,3 km/h (1 Bft)
13.02.2013 08:00 -5,0 C 84 % 1020,7 hPa 0,0 l/m N 0,00 h 41 W/m 3,2 km/h (1 Bft)
13.02.2013 09:00 -4,3 C 83 % 1021,1 hPa 0,0 l/m N 0,00 h 103 W/m 5,2 km/h (1 Bft)
13.02.2013 10:00 -3,2 C 71 % 1021,6 hPa 0,0 l/m N-NO 0,00 h 169 W/m 6,3 km/h (2 Bft)
13.02.2013 11:00 -2,9 C 67 % 1022,3 hPa 0,0 l/m O 0,25 h 241 W/m 8,2 km/h (2 Bft)
13.02.2013 12:00 -2,6 C 64 % 1022,4 hPa 0,0 l/m O-NO 0,17 h 245 W/m 6,5 km/h (2 Bft)
13.02.2013 13:00 -2,7 C 61 % 1022,3 hPa 0,0 l/m O-NO 0,25 h 201 W/m 2,9 km/h (1 Bft)
13.02.2013 14:00 -2,1 C 60 % 1022,2 hPa 0,0 l/m O-NO 0,67 h 353 W/m 5,5 km/h (1 Bft)
13.02.2013 15:00 -1,8 C 60 % 1022,8 hPa 0,0 l/m O 1,00 h 283 W/m 7,9 km/h (2 Bft)
13.02.2013 16:00 -2,1 C 63 % 1023,4 hPa 0,0 l/m O 0,00 h 57 W/m 9,3 km/h (2 Bft)
13.02.2013 17:00 -2,5 C 66 % 1023,8 hPa 0,0 l/m O-SO 0,00 h 13 W/m 6,0 km/h (2 Bft)
13.02.2013 18:00 -3,1 C 70 % 1024,5 hPa 0,0 l/m O-SO 0,00 h 0 W/m 4,8 km/h (1 Bft)
13.02.2013 19:00 -3,8 C 74 % 1025,0 hPa 0,0 l/m N 0,00 h 0 W/m 0,3 km/h (0 Bft)
13.02.2013 20:00 -4,7 C 76 % 1024,9 hPa 0,0 l/m N 0,00 h 0 W/m 0,0 km/h (0 Bft)
13.02.2013 21:00 -6,4 C 79 % 1025,0 hPa 0,0 l/m N 0,00 h 0 W/m 0,3 km/h (0 Bft)
13.02.2013 22:00 -7,6 C 82 % 1025,2 hPa 0,0 l/m N 0,00 h 0 W/m 0,9 km/h (0 Bft)
13.02.2013 23:00 -8,1 C 87 % 1025,2 hPa 0,0 l/m N 0,00 h 0 W/m 1,3 km/h (1 Bft)
14.02.2013 00:00 -8,3 C 89 % 1025,2 hPa 0,0 l/m N 0,00 h 0 W/m 1,1 km/h (0 Bft)
14.02.2013 01:00 -8,5 C 90 % 1025,1 hPa 0,0 l/m N 0,00 h 0 W/m 1,1 km/h (0 Bft)
14.02.2013 02:00 -8,9 C 91 % 1025,2 hPa 0,0 l/m O 0,00 h 0 W/m 2,0 km/h (1 Bft)
14.02.2013 03:00 -9,3 C 91 % 1024,9 hPa 0,0 l/m NO 0,00 h 0 W/m 4,9 km/h (1 Bft)
14.02.2013 04:00 -9,6 C 92 % 1024,6 hPa 0,0 l/m NO 0,00 h 0 W/m 2,4 km/h (1 Bft)
14.02.2013 05:00 -10,0 C 92 % 1024,3 hPa 0,0 l/m N-NO 0,00 h 0 W/m 4,5 km/h (1 Bft)
14.02.2013 06:00 -10,2 C 92 % 1024,0 hPa 0,0 l/m N-NO 0,00 h 0 W/m 5,2 km/h (1 Bft)
14.02.2013 07:00 -10,2 C 93 % 1024,0 hPa 0,0 l/m N 0,00 h 9 W/m 2,1 km/h (1 Bft)
14.02.2013 08:00 -9,8 C 94 % 1024,0 hPa 0,0 l/m N 0,00 h 42 W/m 1,7 km/h (1 Bft)
14.02.2013 09:00 -9,1 C 94 % 1024,0 hPa 0,0 l/m N 0,42 h 161 W/m 1,6 km/h (1 Bft)
14.02.2013 10:00 -7,5 C 93 % 1023,6 hPa 0,0 l/m N 1,00 h 321 W/m 1,1 km/h (0 Bft)
14.02.2013 11:00 -5,7 C 88 % 1023,4 hPa 0,0 l/m N-NO 1,00 h 437 W/m 4,8 km/h (1 Bft)
14.02.2013 12:00 -3,7 C 81 % 1022,9 hPa 0,0 l/m S-SW 1,00 h 486 W/m 8,8 km/h (2 Bft)
14.02.2013 13:00 -2,8 C 78 % 1022,4 hPa 0,0 l/m S-SW 1,00 h 467 W/m 11,2 km/h (2 Bft)
14.02.2013 14:00 -2,3 C 77 % 1021,7 hPa 0,0 l/m S-SW 1,00 h 360 W/m 10,5 km/h (2 Bft)
14.02.2013 15:00 -2,4 C 78 % 1021,0 hPa 0,0 l/m S-SW 0,83 h 189 W/m 7,1 km/h (2 Bft)
14.02.2013 16:00 -3,4 C 80 % 1020,7 hPa 0,0 l/m SW 0,00 h 69 W/m 7,9 km/h (2 Bft)
14.02.2013 17:00 -3,9 C 82 % 1020,4 hPa 0,0 l/m N 0,00 h 16 W/m 2,7 km/h (1 Bft)
14.02.2013 18:00 -4,6 C 83 % 1020,2 hPa 0,0 l/m N 0,00 h 0 W/m 0,5 km/h (0 Bft)
14.02.2013 19:00 -5,0 C 86 % 1019,9 hPa 0,0 l/m N 0,00 h 0 W/m 1,1 km/h (0 Bft)
14.02.2013 20:00 -5,1 C 87 % 1019,5 hPa 0,0 l/m N 0,00 h 0 W/m 0,7 km/h (0 Bft)
14.02.2013 21:00 -4,9 C 89 % 1019,0 hPa 0,0 l/m N 0,00 h 0 W/m 0,1 km/h (0 Bft)
14.02.2013 22:00 -4,6 C 89 % 1018,6 hPa 0,0 l/m N 0,00 h 0 W/m 0,7 km/h (0 Bft)
14.02.2013 23:00 -4,4 C 89 % 1018,0 hPa 0,0 l/m N 0,00 h 0 W/m 0,0 km/h (0 Bft)
15.02.2013 00:00 -4,4 C 89 % 1017,5 hPa 0,0 l/m N 0,00 h 0 W/m 0,0 km/h (0 Bft)
15.02.2013 01:00 -4,0 C 90 % 1017,2 hPa 0,0 l/m N 0,00 h 0 W/m 2,3 km/h (1 Bft)
15.02.2013 02:00 -3,8 C 91 % 1016,9 hPa 0,8 l/m S 0,00 h 0 W/m 6,8 km/h (2 Bft)
15.02.2013 03:00 -3,7 C 93 % 1016,4 hPa 0,6 l/m S-SW 0,00 h 0 W/m 9,9 km/h (2 Bft)
15.02.2013 04:00 -3,4 C 94 % 1015,7 hPa 0,4 l/m S 0,00 h 0 W/m 7,5 km/h (2 Bft)
15.02.2013 05:00 -3,2 C 94 % 1015,7 hPa 0,6 l/m S 0,00 h 0 W/m 6,3 km/h (2 Bft)
15.02.2013 06:00 -2,8 C 95 % 1015,8 hPa 0,2 l/m S 0,00 h 0 W/m 6,1 km/h (2 Bft)
15.02.2013 07:00 -2,6 C 95 % 1016,2 hPa 0,2 l/m N 0,00 h 5 W/m 3,9 km/h (1 Bft)
15.02.2013 08:00 -2,2 C 96 % 1016,8 hPa 0,2 l/m S 0,00 h 14 W/m 3,6 km/h (1 Bft)
15.02.2013 09:00 -1,6 C 96 % 1017,4 hPa 0,0 l/m S 0,00 h 32 W/m 4,3 km/h (1 Bft)
15.02.2013 10:00 -0,3 C 96 % 1017,8 hPa 0,0 l/m S 0,00 h 66 W/m 5,6 km/h (1 Bft)
15.02.2013 11:00 0,7 C 96 % 1018,5 hPa 0,0 l/m S-SW 0,00 h 121 W/m 7,4 km/h (2 Bft)
15.02.2013 12:00 1,6 C 93 % 1018,6 hPa 0,0 l/m W-SW 0,00 h 142 W/m 10,1 km/h (2 Bft)
15.02.2013 13:00 1,8 C 90 % 1018,7 hPa 0,0 l/m W-SW 0,00 h 140 W/m 8,4 km/h (2 Bft)
15.02.2013 14:00 1,9 C 90 % 1018,8 hPa 0,0 l/m W 0,00 h 121 W/m 9,9 km/h (2 Bft)
15.02.2013 15:00 1,6 C 92 % 1019,3 hPa 0,0 l/m W-NW 0,00 h 73 W/m 9,0 km/h (2 Bft)
15.02.2013 16:00 1,3 C 93 % 1019,9 hPa 0,4 l/m W 0,00 h 32 W/m 6,8 km/h (2 Bft)
15.02.2013 17:00 1,1 C 94 % 1020,6 hPa 0,0 l/m W 0,00 h 11 W/m 3,7 km/h (1 Bft)
15.02.2013 18:00 0,8 C 95 % 1021,3 hPa 0,0 l/m W 0,00 h 0 W/m 1,5 km/h (1 Bft)
15.02.2013 19:00 0,5 C 95 % 1021,9 hPa 0,0 l/m N 0,00 h 0 W/m 1,1 km/h (0 Bft)
15.02.2013 20:00 0,4 C 95 % 1022,3 hPa 0,0 l/m N 0,00 h 0 W/m 2,9 km/h (1 Bft)
15.02.2013 21:00 0,4 C 96 % 1022,8 hPa 0,0 l/m N 0,00 h 0 W/m 2,5 km/h (1 Bft)
15.02.2013 22:00 0,5 C 96 % 1022,9 hPa 0,0 l/m N 0,00 h 0 W/m 0,0 km/h (0 Bft)
15.02.2013 23:00 0,4 C 96 % 1023,0 hPa 0,0 l/m N 0,00 h 0 W/m 1,6 km/h (1 Bft)
16.02.2013 00:00 0,4 C 96 % 1023,0 hPa 0,0 l/m W 0,00 h 0 W/m 1,9 km/h (1 Bft)
16.02.2013 01:00 0,4 C 97 % 1023,0 hPa 0,0 l/m W 0,00 h 0 W/m 3,6 km/h (1 Bft)
16.02.2013 02:00 0,4 C 97 % 1022,7 hPa 0,0 l/m N 0,00 h 0 W/m 0,5 km/h (0 Bft)
16.02.2013 03:00 0,4 C 97 % 1022,5 hPa 0,0 l/m N 0,00 h 0 W/m 1,1 km/h (0 Bft)
16.02.2013 04:00 0,2 C 97 % 1022,5 hPa 0,0 l/m N 0,00 h 0 W/m 1,3 km/h (1 Bft)
16.02.2013 05:00 -0,1 C 97 % 1022,6 hPa 0,0 l/m W 0,00 h 0 W/m 1,9 km/h (1 Bft)
16.02.2013 06:00 -0,1 C 97 % 1022,7 hPa 0,0 l/m N 0,00 h 0 W/m 1,2 km/h (1 Bft)
16.02.2013 07:00 -0,1 C 97 % 1022,9 hPa 0,0 l/m N 0,00 h 7 W/m 2,0 km/h (1 Bft)
16.02.2013 08:00 0,1 C 98 % 1023,3 hPa 0,0 l/m N 0,00 h 29 W/m 0,8 km/h (0 Bft)
16.02.2013 09:00 0,6 C 98 % 1023,7 hPa 0,0 l/m W 0,00 h 79 W/m 2,3 km/h (1 Bft)
16.02.2013 10:00 1,1 C 97 % 1023,8 hPa 0,0 l/m W 0,00 h 126 W/m 3,3 km/h (1 Bft)
16.02.2013 11:00 1,3 C 97 % 1023,9 hPa 0,0 l/m W 0,00 h 134 W/m 2,9 km/h (1 Bft)
16.02.2013 12:00 2,4 C 94 % 1023,5 hPa 0,0 l/m W 0,00 h 217 W/m 2,8 km/h (1 Bft)
16.02.2013 13:00 2,7 C 90 % 1022,9 hPa 0,0 l/m W 0,25 h 190 W/m 3,9 km/h (1 Bft)
16.02.2013 14:00 2,9 C 87 % 1022,7 hPa 0,0 l/m W 0,00 h 179 W/m 5,7 km/h (1 Bft)
16.02.2013 15:00 3,1 C 84 % 1022,5 hPa 0,0 l/m W 0,00 h 118 W/m 2,4 km/h (1 Bft)
16.02.2013 16:00 2,7 C 86 % 1022,5 hPa 0,0 l/m N 0,00 h 49 W/m 0,5 km/h (0 Bft)
16.02.2013 17:00 2,6 C 87 % 1022,5 hPa 0,0 l/m N 0,08 h 19 W/m 0,0 km/h (0 Bft)
16.02.2013 18:00 1,8 C 87 % 1022,7 hPa 0,0 l/m N 0,00 h 0 W/m 0,0 km/h (0 Bft)
16.02.2013 19:00 0,9 C 89 % 1023,0 hPa 0,0 l/m N 0,00 h 0 W/m 0,0 km/h (0 Bft)
16.02.2013 20:00 0,1 C 90 % 1022,8 hPa 0,0 l/m N 0,00 h 0 W/m 0,1 km/h (0 Bft)
16.02.2013 21:00 -0,5 C 92 % 1022,7 hPa 0,0 l/m N 0,00 h 0 W/m 1,1 km/h (0 Bft)
16.02.2013 22:00 -1,0 C 92 % 1022,8 hPa 0,0 l/m N 0,00 h 0 W/m 0,5 km/h (0 Bft)
16.02.2013 23:00 -1,0 C 94 % 1022,7 hPa 0,0 l/m N 0,00 h 0 W/m 0,1 km/h (0 Bft)
17.02.2013 00:00 -0,6 C 96 % 1022,4 hPa 0,0 l/m W 0,00 h 0 W/m 3,1 km/h (1 Bft)
17.02.2013 01:00 -0,3 C 96 % 1022,4 hPa 0,0 l/m N 0,00 h 0 W/m 2,7 km/h (1 Bft)
17.02.2013 02:00 -0,1 C 96 % 1022,1 hPa 0,0 l/m W 0,00 h 0 W/m 2,4 km/h (1 Bft)
17.02.2013 03:00 -0,0 C 97 % 1021,7 hPa 0,0 l/m W 0,00 h 0 W/m 2,4 km/h (1 Bft)
17.02.2013 04:00 0,0 C 97 % 1021,6 hPa 0,0 l/m W 0,00 h 0 W/m 4,0 km/h (1 Bft)
17.02.2013 05:00 0,1 C 97 % 1021,6 hPa 0,0 l/m W 0,00 h 0 W/m 3,7 km/h (1 Bft)
17.02.2013 06:00 0,1 C 97 % 1021,5 hPa 0,0 l/m W 0,00 h 0 W/m 3,2 km/h (1 Bft)
17.02.2013 07:00 0,0 C 97 % 1021,4 hPa 0,0 l/m N 0,00 h 8 W/m 1,1 km/h (0 Bft)
17.02.2013 08:00 0,1 C 97 % 1021,6 hPa 0,0 l/m W 0,00 h 38 W/m 3,9 km/h (1 Bft)
17.02.2013 09:00 0,6 C 96 % 1021,6 hPa 0,0 l/m N-NW 0,00 h 51 W/m 6,1 km/h (2 Bft)
17.02.2013 10:00 0,9 C 94 % 1021,6 hPa 0,0 l/m N 0,00 h 83 W/m 6,5 km/h (2 Bft)
17.02.2013 11:00 1,3 C 92 % 1021,5 hPa 0,0 l/m NO 0,00 h 114 W/m 8,3 km/h (2 Bft)
17.02.2013 12:00 1,7 C 89 % 1021,1 hPa 0,0 l/m O-NO 0,00 h 135 W/m 8,7 km/h (2 Bft)
17.02.2013 13:00 1,9 C 87 % 1020,5 hPa 0,0 l/m NO 0,00 h 116 W/m 9,5 km/h (2 Bft)
17.02.2013 14:00 1,9 C 88 % 1019,9 hPa 0,0 l/m NO 0,00 h 104 W/m 9,7 km/h (2 Bft)
17.02.2013 15:00 1,9 C 88 % 1019,7 hPa 0,0 l/m O-NO 0,00 h 64 W/m 10,9 km/h (2 Bft)
17.02.2013 16:00 1,8 C 88 % 1019,5 hPa 0,0 l/m O-NO 0,00 h 23 W/m 9,5 km/h (2 Bft)
17.02.2013 17:00 1,4 C 90 % 1019,6 hPa 0,0 l/m O-NO 0,00 h 7 W/m 10,2 km/h (2 Bft)
17.02.2013 18:00 1,2 C 91 % 1019,9 hPa 0,0 l/m O-NO 0,00 h 0 W/m 7,0 km/h (2 Bft)
17.02.2013 19:00 0,9 C 91 % 1020,1 hPa 0,0 l/m O-NO 0,00 h 0 W/m 9,2 km/h (2 Bft)
17.02.2013 20:00 0,7 C 89 % 1019,8 hPa 0,0 l/m O-NO 0,00 h 0 W/m 12,2 km/h (2 Bft)
17.02.2013 21:00 0,5 C 90 % 1019,6 hPa 0,0 l/m NO 0,00 h 0 W/m 10,6 km/h (2 Bft)
17.02.2013 22:00 0,1 C 90 % 1019,4 hPa 0,0 l/m O-NO 0,00 h 0 W/m 9,8 km/h (2 Bft)
17.02.2013 23:00 -0,1 C 91 % 1019,3 hPa 0,0 l/m O-NO 0,00 h 0 W/m 7,5 km/h (2 Bft)
Min-Datum _ 11.02.13 13.02.13 11.02.13 - - - - 11.02.13
_ Min-Zeit 00:40 14:45 14:05 - - - - 00:50
Minimum _ -10,4 C 56 % 1000,2 hPa - - - - 0,0 km/h (0 Bft)
Max-Datum _ 16.02.13 11.02.13 13.02.13 15.02.13 - 11.02.13 16.02.13 15.02.13
_ Max-Zeit 15:00 01:25 23:35 02:05 - 10:30 13:05 14:50
Maximum _ 3,2 C 100 % 1025,4 hPa 0,8 l/m - 0,08 h 513 W/m 17,7 km/h
W (3 Bft)
Durchschnitt _ -2,9 C 88 % 1016,7 hPa #4,2 l/m NO #12:50 h 120 W/m 4,7 km/h (1 Bft)